SCP
0 0 0 0 0 0 0 0 0 0 0 0 0 0 0 0 0 -0 -0 -0 -0 -0 -0 -0 0 0 -0 0 0 0 0 0 0 0 0 0 0 0 0 -0 -0 -0 -0 0
0 0 0 0 0 0 0 0 -0 0 0 0 0 0 0 0 0 -0 -0 -0 -0 -0 -0 -0 -0 -0 -0 0 0 0 0 0 0 0 0 0 0 0 0 0 0 0 -0 -0
0 0 0 0 0 0 0 0 0 0 0 -0 0 0 0 0 0 -0 -0 -0 -0 -0 -0 -0 -0 -0 -0 -0 0 0 0 0 0 0 0 0 0 0 0 0 0 0 0 0
0 0 0 0 -0 0 0 0 0 0 -0 0 -0 0 0 0 -0 -0 -0 -0 -0 -0 -0 -0 -0 -0 0 -0 -0 -0 -0 0 0 0 0 0 0 0 0 0 0 0 0 0
0 0 0 0 0 0 0 0 0 0 0 -0 0 0 0 -0 -0 -0 -0 -0 -0 -0 -0 -0 -0 -0 -0 -0 -0 -0 -0 -0 0 0 0 0 0 0 0 0 0 0 0 0
0 0 0 0 0 0 0 0 0 0 0 -0 0 0 0 -0 -0 0 0 0 -0 -0 -0 -0 -0 -0 -0 -0 -0 -0 -0 -0 -0 0 0 0 0 0 0 0 0 -0 0 0
0 0 0 0 0 0 0 0 0 0 0 0 0 0 0 0 -0 0 0 0 -0 -0 -0 -0 -0 -0 -0 -0 -0 -0 -0 -0 -0 -0 0 0 0 0 0 0 0 0 0 0
0 0 0 0 0 0 0 0 0 0 0 0 0 -0 0 0 0 0 0 0 -0 -0 -0 -0 -0 -0 -0 -0 -0 -0 -0 -0 -0 -0 -0 -0 -0 0 0 0 0 0 0 0
0 0 0 0 0 0 0 0 0 0 0 0 0 -0 -0 0 0 0 0 0 -0 -0 -0 -0 -0 -0 -0 -0 -0 -0 -0 -0 -0 -0 -0 -0 -0 -0 0 0 0 0 0 0
0 0 0 0 0 0 0 0 0 0 0 0 0 0 -0 0 0 0 0 0 0 0 -0 -0 -0 -0 -0 -0 -0 -0 -0 -0 -0 -0 -0 -0 0 -0 0 0 0 0 0 0
0 0 0 0 0 0 0 0 0 0 0 0 0 0 0 0 0 0 0 0 0 0 0 -0 -0 -0 -0 -0 -0 -0 -0 -0 -0 -0 -0 -0 0 0 0 0 -0 -0 -0 0
0 0 0 0 0 0 0 0 0 0 0 0 0 0 0 0 0 0 0 0 0 0 0 0 -0 -0 -0 -0 -0 -0 -0 -0 -0 -0 -0 0 0 0 0 -0 -0 -0 -0 -0
0 -0 0 0 0 0 0 0 0 0 0 0 0 0 0 0 0 0 0 0 0 0 0 0 0 -0 0 -0 -0 -0 -0 0 0 0 0 0 0 0 0 0 -0 0 -0 -0
0 -0 0 0 0 0 0 0 0 0 0 0 0 0 0 0 0 0 0 0 0 0 0 0 0 0 0 0 0 -0 0 -0 0 0 0 0 0 0 0 0 0 -0 -0 -0
0 0 -0 0 0 0 0 0 0 0 0 0 0 0 0 0 0 0 0 0 0 0 0 0 0 0 0 0 0 0 0 0 0 0 0 0 0 0 0 0 0 0 0 0
0 0 -0 0 0 0 0 0 0 0 0 0 0 0 0 0 0 0 0 0 0 0 0 0 0 0 0 0 0 0 0 0 0 0 0 0 0 0 0 0 0 0 0 0
0 -0 -0 -0 0 0 0 0 0 0 0 0 0 0 0 0 0 0 0 0 0 0 0 0 0 0 0 0 0 0 0 0 0 0 0 0 0 0 0 0 0 0 0 0
0 0 0 -0 -0 -0 0 0 0 0 0 0 0 0 0 0 0 0 0 0 0 0 0 0 0 0 0 0 0 0 0 0 0 0 0 0 0 0 0 0 0 0 0 0
0 0 0 0 0 -0 -0 0 0 0 0 0 0 0 0 0 0 0 0 0 0 0 0 0 0 0 0 0 0 0 0 0 0 0 0 0 0 0 0 0 0 0 0 0
0 0 0 0 0 0 0 0 0 0 0 0 0 0 0 0 0 0 0 0 0 0 0 0 0 0 0 0 0 0 0 0 0 0 0 0 0 0 0 0 0 0 0 0
0 0 0 0 0 0 0 0 0 0 0 0 0 0 0 0 0 0 0 0 0 0 0 0 0 0 0 0 0 0 0 0 0 0 0 0 0 0 0 0 0 0 0 0
-0 0 0 0 0 0 0 0 0 0 0 0 0 0 0 0 0 -0 -0 0 0 0 0 0 0 0 0 0 0 0 0 0 0 0 0 0 0 0 0 0 0 0 0 0
-0 -0 0 0 0 0 0 0 0 0 0 0 0 0 0 0 0 0 0 0 0 0 0 0 0 0 0 0 0 0 0 0 0 0 0 0 0 0 0 0 0 0 0 0
-0 0 0 0 0 0 0 0 0 0 0 0 0 0 0 0 0 0 -0 -0 0 0 0 0 0 0 0 0 0 0 0 0 0 0 0 0 0 0 0 0 0 0 0 0
-0 0 -0 -0 0 0 0 0 0 0 0 0 0 0 0 0 0 0 0 -0 0 0 0 0 0 0 0 0 0 0 0 0 0 0 0 0 0 0 0 0 0 0 0 0
0 -0 -0 -0 -0 0 0 0 0 0 0 0 0 0 0 0 0 0 0 0 0 0 0 0 0 0 0 0 0 0 0 0 0 0 0 0 0 0 0 0 0 0 0 0
-0 -0 -0 0 -0 0 0 0 0 0 0 0 0 0 0 -0 0 0 0 0 0 0 0 0 0 0 0 0 0 0 0 0 0 0 0 0 0 0 0 0 0 0 0 0
Wind_Speed_500mb
21 27 19 2 35 40 41 27 12 10 29 13 19 21 19 36 44 48 51 58 67 69 66 58 54 50 43 33 34 30 21 18 18 15 16 15 18 21 23 17 17 18 20 25
11 24 17 21 13 39 49 39 27 12 18 17 15 8 19 45 52 54 60 65 67 69 67 64 58 54 47 37 38 35 25 21 20 19 18 15 16 17 16 19 17 21 20 18
9 19 17 16 42 22 21 29 30 29 30 9 8 15 23 43 62 68 68 67 69 75 71 67 60 55 53 42 40 39 32 26 21 25 23 18 17 17 15 15 18 19 11 14
7 8 10 13 17 26 22 15 34 23 15 19 18 47 59 64 71 71 71 69 70 71 70 66 60 56 51 46 42 41 40 32 24 30 27 21 19 18 15 16 20 18 16 15
3 5 10 3 13 11 8 22 12 16 27 14 42 17 19 61 74 74 73 71 68 65 64 65 62 58 56 52 45 45 45 39 31 34 31 26 23 19 16 15 21 19 20 22
4 5 12 5 34 31 15 11 22 26 21 18 20 13 15 68 80 73 72 71 69 66 66 64 64 62 61 60 55 48 48 44 36 31 34 30 26 22 20 17 19 22 23 22
13 7 9 22 38 33 14 10 39 37 34 37 19 30 75 65 78 74 70 71 70 66 67 64 65 66 66 64 62 48 43 45 41 33 36 33 29 26 22 19 20 21 22 24
6 7 7 35 17 14 15 35 41 44 46 45 53 71 70 69 81 80 76 70 70 69 69 67 66 69 70 68 55 52 45 48 44 38 38 39 34 30 26 21 18 22 22 23
5 5 8 22 8 12 32 39 45 56 60 55 56 60 69 73 75 81 79 78 76 73 69 68 70 72 72 65 59 57 52 51 45 41 36 42 41 37 35 29 21 24 26 25
5 13 29 53 29 35 51 54 65 62 64 50 51 55 70 71 80 74 79 82 83 75 76 70 71 75 70 65 60 60 58 56 51 49 42 44 43 41 40 36 31 26 29 30
8 10 39 10 49 55 75 73 79 83 70 54 36 45 67 70 72 73 75 81 84 81 79 76 71 73 74 70 66 63 62 60 59 56 49 42 44 42 43 38 32 30 31 30
3 8 20 35 50 66 59 73 79 80 80 61 41 19 46 65 71 72 76 78 81 83 81 78 70 68 72 74 70 64 65 66 65 62 58 52 44 41 38 36 33 29 23 30
9 16 35 54 54 38 61 75 74 72 64 61 43 19 24 50 68 69 75 78 78 75 76 81 74 68 67 73 73 71 66 67 67 63 65 61 58 50 43 37 37 36 33 32
24 24 35 38 45 60 58 69 70 63 67 57 47 25 7 32 55 69 74 77 76 73 77 80 78 71 64 70 73 73 70 64 67 67 66 63 60 57 51 45 41 42 44 43
25 28 37 52 55 54 53 58 67 59 66 68 57 35 15 13 35 51 65 71 73 73 74 77 79 75 68 68 73 74 75 71 68 66 66 64 59 56 56 53 51 44 41 47
43 48 46 46 46 58 53 58 58 59 59 60 63 51 21 11 16 40 49 59 66 68 66 75 79 75 71 70 73 75 75 72 71 70 67 66 65 60 58 59 58 55 50 47
38 45 37 38 39 54 62 59 53 54 50 48 50 49 33 12 10 20 42 55 63 63 66 75 78 79 73 71 73 73 75 77 75 72 69 67 65 65 62 61 61 61 56 50
57 54 51 55 54 48 70 58 48 49 42 42 37 36 34 28 7 14 18 44 56 55 59 65 76 80 73 68 70 72 72 74 77 78 75 72 70 68 65 61 60 61 59 56
52 54 58 47 48 56 67 61 50 49 39 34 31 32 31 31 29 1 10 15 44 54 58 61 67 71 68 64 64 67 67 67 72 73 74 74 73 72 70 68 65 61 58 59
32 29 45 48 41 52 57 56 48 50 42 36 27 30 29 32 34 21 5 5 20 40 49 55 59 66 61 60 67 69 65 62 64 66 67 70 70 69 68 70 69 66 61 59
52 34 27 38 42 45 48 47 45 51 50 44 32 26 24 30 34 30 9 10 17 10 17 42 46 56 60 61 63 68 61 61 62 62 61 60 60 59 54 59 64 65 62 59
64 49 21 17 27 40 41 41 40 57 47 46 36 26 26 27 26 26 21 6 2 11 13 16 30 48 49 57 58 68 62 59 61 59 60 59 54 54 48 45 50 54 56 55
70 55 43 27 16 21 28 40 40 47 50 46 34 32 33 31 28 21 18 12 13 10 18 7 18 23 37 48 50 66 70 60 57 55 55 56 55 56 53 49 48 49 51 47
65 71 44 29 17 18 19 16 30 33 31 34 30 24 29 26 25 20 12 16 19 16 14 6 12 24 23 28 53 69 63 50 48 46 44 43 44 47 50 52 51 52 53 52
62 64 63 42 35 33 30 28 20 22 27 34 31 21 25 31 25 17 9 18 25 24 27 16 4 24 17 11 22 36 49 49 47 42 38 35 35 36 38 44 48 49 50 51
62 59 73 61 55 35 35 33 33 31 28 30 37 39 34 31 31 28 21 11 14 20 29 36 34 33 31 14 34 29 39 43 41 37 38 40 39 38 38 40 39 38 45 51
55 45 58 74 65 62 37 21 21 27 30 31 39 43 44 49 49 43 42 33 20 19 26 26 22 19 20 42 19 31 43 41 34 34 33 32 29 28 30 31 32 35 36 36
Wind_Direction_500mb
280 272 297 39 204 208 212 212 174 207 207 217 223 222 209 192 179 183 187 191 190 189 190 192 196 197 196 188 184 190 179 171 166 160 149 123 106 100 80 93 112 120 121 125
299 281 279 272 256 216 210 217 232 227 246 212 255 137 168 176 180 187 196 198 194 195 194 196 197 198 196 190 186 192 186 174 174 168 163 148 121 109 96 94 128 118 123 134
292 336 315 259 238 231 231 216 200 209 225 172 208 205 201 186 188 196 202 201 199 199 198 198 197 198 197 190 186 191 194 184 179 171 166 157 134 118 110 95 119 133 113 138
265 326 200 256 190 206 209 225 228 240 177 197 216 233 219 207 195 204 204 207 205 201 202 199 198 199 196 194 191 189 196 192 181 175 172 165 148 129 106 98 114 132 101 107
235 258 283 301 46 9 168 240 196 219 237 246 227 178 241 220 210 211 207 208 209 202 200 198 199 198 196 197 197 194 197 196 187 184 181 174 165 144 120 110 108 108 107 84
294 240 214 54 315 315 269 223 16 348 334 278 145 189 231 216 210 214 213 211 209 203 200 198 199 199 196 199 201 199 198 197 194 190 191 183 169 160 140 124 121 108 107 117
226 283 283 337 323 313 139 297 325 331 314 311 228 205 219 209 206 214 213 215 213 207 200 199 200 199 200 202 204 197 195 198 197 197 194 190 178 170 161 145 145 133 121 117
188 251 284 352 1 60 285 307 317 318 312 297 281 242 225 215 207 213 212 215 214 208 205 201 201 201 204 207 203 198 197 200 199 198 197 195 192 183 182 172 160 162 151 138
250 294 342 341 281 292 334 321 319 325 317 307 287 255 236 219 209 214 215 216 216 207 209 203 204 205 207 208 204 200 199 201 198 197 200 201 200 198 195 192 187 178 173 165
266 13 336 313 316 326 337 330 328 331 327 325 299 246 231 225 206 212 216 213 214 207 209 207 206 208 211 209 203 201 201 201 199 197 198 202 205 206 205 202 198 195 185 181
271 331 324 326 343 332 331 334 341 347 345 334 320 237 228 222 210 211 212 210 214 211 207 210 208 207 208 209 206 203 203 202 201 199 199 199 205 210 211 213 211 206 201 194
308 309 278 285 315 330 330 331 339 342 347 354 354 279 231 222 225 216 211 207 211 213 211 208 211 209 208 209 207 205 204 204 203 202 201 202 200 203 212 218 221 221 220 218
274 286 295 300 307 328 324 328 338 343 351 349 3 340 226 225 219 213 210 210 212 215 215 208 210 211 209 209 208 207 208 205 204 205 204 205 207 208 208 209 216 221 221 218
336 290 295 293 312 323 324 325 332 341 1 10 5 8 280 218 216 215 214 212 215 214 214 208 207 210 208 209 209 209 210 211 207 206 207 208 210 214 216 214 212 215 214 216
291 307 292 295 300 308 315 324 325 337 352 11 15 11 39 180 201 213 212 213 211 213 213 209 207 210 209 210 210 209 210 213 213 212 210 210 210 215 221 223 222 223 220 219
287 290 287 290 299 296 304 310 320 328 343 358 11 15 31 67 186 196 208 213 209 213 213 211 207 208 211 211 212 210 212 215 216 215 214 214 215 216 221 226 229 229 228 230
282 279 281 277 271 277 283 296 307 312 325 346 6 11 20 57 100 185 202 209 217 218 209 210 206 212 213 214 213 212 211 215 217 219 219 220 220 220 221 226 230 232 234 236
264 268 271 268 269 265 268 279 291 301 312 325 348 6 14 30 48 75 198 208 210 217 215 212 210 214 215 215 216 215 214 217 218 220 222 224 226 228 229 230 233 236 237 237
270 264 253 261 265 260 262 272 281 297 300 306 324 345 357 13 17 234 83 202 209 211 211 211 214 217 219 220 218 215 216 220 221 223 226 228 229 233 235 237 239 240 240 240
330 283 253 255 263 256 259 269 276 288 286 285 290 311 341 360 2 2 211 182 183 208 213 209 209 210 213 215 222 217 215 218 222 224 229 231 232 234 238 241 242 243 243 243
353 336 268 249 254 245 241 261 269 279 280 274 269 285 306 339 342 340 319 245 241 202 201 207 202 205 210 217 224 225 214 218 221 224 229 232 234 235 235 239 241 244 246 246
7 5 342 277 252 247 234 241 259 264 268 267 262 266 290 316 319 333 327 302 302 236 235 195 194 197 208 215 223 225 217 217 221 224 228 230 232 234 233 235 243 247 250 253
17 14 8 360 291 274 281 270 243 265 256 256 262 259 274 301 310 322 307 288 215 223 209 237 231 219 212 218 225 230 228 225 227 230 234 236 236 239 239 238 242 249 255 258
15 16 4 346 326 306 298 309 240 236 255 253 273 239 256 278 301 313 309 291 228 236 193 221 261 218 209 220 225 231 228 216 216 222 228 233 235 236 238 243 248 253 256 257
12 17 16 11 358 331 307 291 289 246 236 252 256 245 270 277 269 285 296 311 262 226 200 207 339 210 187 238 245 218 215 213 213 213 215 222 229 233 235 239 241 240 247 251
14 16 19 16 13 352 330 306 286 271 259 256 266 259 251 267 266 267 260 240 232 185 188 209 208 216 222 213 250 258 241 220 208 211 217 221 227 233 239 244 244 242 240 241
21 19 16 21 15 11 3 350 335 319 297 282 266 258 248 246 253 257 260 247 215 180 167 154 144 146 186 230 271 259 223 206 206 208 211 213 217 227 231 231 230 225 225 226
Wind_Speed_850mb
21 27 19 2 35 40 41 27 12 10 29 13 19 21 19 36 44 48 51 58 67 69 66 58 54 50 43 33 34 30 21 18 18 15 16 15 18 21 23 17 17 18 20 25
11 24 17 21 13 39 49 39 27 12 18 17 15 8 19 45 52 54 60 65 67 69 67 64 58 54 47 37 38 35 25 21 20 19 18 15 16 17 16 19 17 21 20 18
9 19 17 16 42 22 21 29 30 29 30 9 8 15 23 43 62 68 68 67 69 75 71 67 60 55 53 42 40 39 32 26 21 25 23 18 17 17 15 15 18 19 11 14
7 8 10 13 17 26 22 15 34 23 15 19 18 47 59 64 71 71 71 69 70 71 70 66 60 56 51 46 42 41 40 32 24 30 27 21 19 18 15 16 20 18 16 15
3 5 10 3 13 11 8 22 12 16 27 14 42 17 19 61 74 74 73 71 68 65 64 65 62 58 56 52 45 45 45 39 31 34 31 26 23 19 16 15 21 19 20 22
4 5 12 5 34 31 15 11 22 26 21 18 20 13 15 68 80 73 72 71 69 66 66 64 64 62 61 60 55 48 48 44 36 31 34 30 26 22 20 17 19 22 23 22
13 7 9 22 38 33 14 10 39 37 34 37 19 30 75 65 78 74 70 71 70 66 67 64 65 66 66 64 62 48 43 45 41 33 36 33 29 26 22 19 20 21 22 24
6 7 7 35 17 14 15 35 41 44 46 45 53 71 70 69 81 80 76 70 70 69 69 67 66 69 70 68 55 52 45 48 44 38 38 39 34 30 26 21 18 22 22 23
5 5 8 22 8 12 32 39 45 56 60 55 56 60 69 73 75 81 79 78 76 73 69 68 70 72 72 65 59 57 52 51 45 41 36 42 41 37 35 29 21 24 26 25
5 13 29 53 29 35 51 54 65 62 64 50 51 55 70 71 80 74 79 82 83 75 76 70 71 75 70 65 60 60 58 56 51 49 42 44 43 41 40 36 31 26 29 30
8 10 39 10 49 55 75 73 79 83 70 54 36 45 67 70 72 73 75 81 84 81 79 76 71 73 74 70 66 63 62 60 59 56 49 42 44 42 43 38 32 30 31 30
3 8 20 35 50 66 59 73 79 80 80 61 41 19 46 65 71 72 76 78 81 83 81 78 70 68 72 74 70 64 65 66 65 62 58 52 44 41 38 36 33 29 23 30
9 16 35 54 54 38 61 75 74 72 64 61 43 19 24 50 68 69 75 78 78 75 76 81 74 68 67 73 73 71 66 67 67 63 65 61 58 50 43 37 37 36 33 32
24 24 35 38 45 60 58 69 70 63 67 57 47 25 7 32 55 69 74 77 76 73 77 80 78 71 64 70 73 73 70 64 67 67 66 63 60 57 51 45 41 42 44 43
25 28 37 52 55 54 53 58 67 59 66 68 57 35 15 13 35 51 65 71 73 73 74 77 79 75 68 68 73 74 75 71 68 66 66 64 59 56 56 53 51 44 41 47
43 48 46 46 46 58 53 58 58 59 59 60 63 51 21 11 16 40 49 59 66 68 66 75 79 75 71 70 73 75 75 72 71 70 67 66 65 60 58 59 58 55 50 47
38 45 37 38 39 54 62 59 53 54 50 48 50 49 33 12 10 20 42 55 63 63 66 75 78 79 73 71 73 73 75 77 75 72 69 67 65 65 62 61 61 61 56 50
57 54 51 55 54 48 70 58 48 49 42 42 37 36 34 28 7 14 18 44 56 55 59 65 76 80 73 68 70 72 72 74 77 78 75 72 70 68 65 61 60 61 59 56
52 54 58 47 48 56 67 61 50 49 39 34 31 32 31 31 29 1 10 15 44 54 58 61 67 71 68 64 64 67 67 67 72 73 74 74 73 72 70 68 65 61 58 59
32 29 45 48 41 52 57 56 48 50 42 36 27 30 29 32 34 21 5 5 20 40 49 55 59 66 61 60 67 69 65 62 64 66 67 70 70 69 68 70 69 66 61 59
52 34 27 38 42 45 48 47 45 51 50 44 32 26 24 30 34 30 9 10 17 10 17 42 46 56 60 61 63 68 61 61 62 62 61 60 60 59 54 59 64 65 62 59
64 49 21 17 27 40 41 41 40 57 47 46 36 26 26 27 26 26 21 6 2 11 13 16 30 48 49 57 58 68 62 59 61 59 60 59 54 54 48 45 50 54 56 55
70 55 43 27 16 21 28 40 40 47 50 46 34 32 33 31 28 21 18 12 13 10 18 7 18 23 37 48 50 66 70 60 57 55 55 56 55 56 53 49 48 49 51 47
65 71 44 29 17 18 19 16 30 33 31 34 30 24 29 26 25 20 12 16 19 16 14 6 12 24 23 28 53 69 63 50 48 46 44 43 44 47 50 52 51 52 53 52
62 64 63 42 35 33 30 28 20 22 27 34 31 21 25 31 25 17 9 18 25 24 27 16 4 24 17 11 22 36 49 49 47 42 38 35 35 36 38 44 48 49 50 51
62 59 73 61 55 35 35 33 33 31 28 30 37 39 34 31 31 28 21 11 14 20 29 36 34 33 31 14 34 29 39 43 41 37 38 40 39 38 38 40 39 38 45 51
55 45 58 74 65 62 37 21 21 27 30 31 39 43 44 49 49 43 42 33 20 19 26 26 22 19 20 42 19 31 43 41 34 34 33 32 29 28 30 31 32 35 36 36
Wind_Direction_850mb
280 272 297 39 204 208 212 212 174 207 207 217 223 222 209 192 179 183 187 191 190 189 190 192 196 197 196 188 184 190 179 171 166 160 149 123 106 100 80 93 112 120 121 125
299 281 279 272 256 216 210 217 232 227 246 212 255 137 168 176 180 187 196 198 194 195 194 196 197 198 196 190 186 192 186 174 174 168 163 148 121 109 96 94 128 118 123 134
292 336 315 259 238 231 231 216 200 209 225 172 208 205 201 186 188 196 202 201 199 199 198 198 197 198 197 190 186 191 194 184 179 171 166 157 134 118 110 95 119 133 113 138
265 326 200 256 190 206 209 225 228 240 177 197 216 233 219 207 195 204 204 207 205 201 202 199 198 199 196 194 191 189 196 192 181 175 172 165 148 129 106 98 114 132 101 107
235 258 283 301 46 9 168 240 196 219 237 246 227 178 241 220 210 211 207 208 209 202 200 198 199 198 196 197 197 194 197 196 187 184 181 174 165 144 120 110 108 108 107 84
294 240 214 54 315 315 269 223 16 348 334 278 145 189 231 216 210 214 213 211 209 203 200 198 199 199 196 199 201 199 198 197 194 190 191 183 169 160 140 124 121 108 107 117
226 283 283 337 323 313 139 297 325 331 314 311 228 205 219 209 206 214 213 215 213 207 200 199 200 199 200 202 204 197 195 198 197 197 194 190 178 170 161 145 145 133 121 117
188 251 284 352 1 60 285 307 317 318 312 297 281 242 225 215 207 213 212 215 214 208 205 201 201 201 204 207 203 198 197 200 199 198 197 195 192 183 182 172 160 162 151 138
250 294 342 341 281 292 334 321 319 325 317 307 287 255 236 219 209 214 215 216 216 207 209 203 204 205 207 208 204 200 199 201 198 197 200 201 200 198 195 192 187 178 173 165
266 13 336 313 316 326 337 330 328 331 327 325 299 246 231 225 206 212 216 213 214 207 209 207 206 208 211 209 203 201 201 201 199 197 198 202 205 206 205 202 198 195 185 181
271 331 324 326 343 332 331 334 341 347 345 334 320 237 228 222 210 211 212 210 214 211 207 210 208 207 208 209 206 203 203 202 201 199 199 199 205 210 211 213 211 206 201 194
308 309 278 285 315 330 330 331 339 342 347 354 354 279 231 222 225 216 211 207 211 213 211 208 211 209 208 209 207 205 204 204 203 202 201 202 200 203 212 218 221 221 220 218
274 286 295 300 307 328 324 328 338 343 351 349 3 340 226 225 219 213 210 210 212 215 215 208 210 211 209 209 208 207 208 205 204 205 204 205 207 208 208 209 216 221 221 218
336 290 295 293 312 323 324 325 332 341 1 10 5 8 280 218 216 215 214 212 215 214 214 208 207 210 208 209 209 209 210 211 207 206 207 208 210 214 216 214 212 215 214 216
291 307 292 295 300 308 315 324 325 337 352 11 15 11 39 180 201 213 212 213 211 213 213 209 207 210 209 210 210 209 210 213 213 212 210 210 210 215 221 223 222 223 220 219
287 290 287 290 299 296 304 310 320 328 343 358 11 15 31 67 186 196 208 213 209 213 213 211 207 208 211 211 212 210 212 215 216 215 214 214 215 216 221 226 229 229 228 230
282 279 281 277 271 277 283 296 307 312 325 346 6 11 20 57 100 185 202 209 217 218 209 210 206 212 213 214 213 212 211 215 217 219 219 220 220 220 221 226 230 232 234 236
264 268 271 268 269 265 268 279 291 301 312 325 348 6 14 30 48 75 198 208 210 217 215 212 210 214 215 215 216 215 214 217 218 220 222 224 226 228 229 230 233 236 237 237
270 264 253 261 265 260 262 272 281 297 300 306 324 345 357 13 17 234 83 202 209 211 211 211 214 217 219 220 218 215 216 220 221 223 226 228 229 233 235 237 239 240 240 240
330 283 253 255 263 256 259 269 276 288 286 285 290 311 341 360 2 2 211 182 183 208 213 209 209 210 213 215 222 217 215 218 222 224 229 231 232 234 238 241 242 243 243 243
353 336 268 249 254 245 241 261 269 279 280 274 269 285 306 339 342 340 319 245 241 202 201 207 202 205 210 217 224 225 214 218 221 224 229 232 234 235 235 239 241 244 246 246
7 5 342 277 252 247 234 241 259 264 268 267 262 266 290 316 319 333 327 302 302 236 235 195 194 197 208 215 223 225 217 217 221 224 228 230 232 234 233 235 243 247 250 253
17 14 8 360 291 274 281 270 243 265 256 256 262 259 274 301 310 322 307 288 215 223 209 237 231 219 212 218 225 230 228 225 227 230 234 236 236 239 239 238 242 249 255 258
15 16 4 346 326 306 298 309 240 236 255 253 273 239 256 278 301 313 309 291 228 236 193 221 261 218 209 220 225 231 228 216 216 222 228 233 235 236 238 243 248 253 256 257
12 17 16 11 358 331 307 291 289 246 236 252 256 245 270 277 269 285 296 311 262 226 200 207 339 210 187 238 245 218 215 213 213 213 215 222 229 233 235 239 241 240 247 251
14 16 19 16 13 352 330 306 286 271 259 256 266 259 251 267 266 267 260 240 232 185 188 209 208 216 222 213 250 258 241 220 208 211 217 221 227 233 239 244 244 242 240 241
21 19 16 21 15 11 3 350 335 319 297 282 266 258 248 246 253 257 260 247 215 180 167 154 144 146 186 230 271 259 223 206 206 208 211 213 217 227 231 231 230 225 225 226